Regional Weather Roundup
Issued by NWS

Home | Current Version | Previous Version | Text Only | Print | Product List | Glossary Off
Versions: 1 2 3 4 5 6 7 8 9 10 11 12 13 14 15 16 17 18 19 20 21 22 23 24 25 26 27 28 29 30 31 32 33 34 35 36 37 38 39 40 41 42 43 44 45 46 47 48 49 50

000
ASUS45 KSLC 011710
RWRUT

UTAH REGIONAL WEATHER ROUNDUP
NATIONAL WEATHER SERVICE SALT LAKE CITY UT
1000 AM MST SUN MAR 01 2015

UTZ001>011-023>025-011800-

NORTHERN UTAH

CITY           SKY/WX    TMP DP  RH WIND       PRES   REMARKS
BRIGHAM CITY   SUNNY     37  18  46 CALM      30.12R
HILL AFB       MOSUNNY   38  20  49 E13       30.08S WCI  30
LOGAN          SUNNY     30  17  58 S6        30.14R WCI  24
OGDEN          SUNNY     39  21  48 E5        30.09R
PROVO AIRPORT  NOT AVBL
SALT LAKE CITY MOSUNNY   38  29  70 NW6       30.10R WCI  33
VERNAL         CLOUDY    31  25  78 NE12      30.12S WCI  22
WENDOVER       CLOUDY    37  16  41 S3        30.12R
HEBER CITY     LGT SNOW  32  27  80 CALM      30.09S
WEST JORDAN    PTSUNNY   37  28  70 N6        30.09S WCI  33

$$

UTZ012>022-026-027-011800-

SOUTHERN/CENTRAL UTAH

CITY           SKY/WX    TMP DP  RH WIND       PRES   REMARKS
BLANDING       CLOUDY    33  33 100 CALM      30.17R
BRYCE CANYON   LGT SNOW  25  23  92 CALM      30.05R FOG
CEDAR CITY     CLOUDY    28  25  88 NE5       30.02R WCI  23
DELTA          CLOUDY    35  33  92 CALM      30.08S
HANKSVILLE     CLOUDY    34  32  93 CALM      30.11S
MILFORD        CLOUDY    34  30  85 N3        30.07R
MOAB/CYNLANDS  PTSUNNY   38  34  85 CALM      30.08R
PRICE          MOSUNNY   36  29  75 CALM      30.06S
ST GEORGE      CLOUDY    46  36  66 E3        30.07R
KANAB          CLOUDY    34  34 100 NW10      30.09R WCI  26

$$

REGIONAL REPORTS     COLORADO/ARIZONA

CITY           SKY/WX    TMP DP  RH WIND       PRES   REMARKS
CRAIG, CO      CLOUDY    23  18  81 CALM      30.15S
GRAND JUNCTION CLOUDY    39  32  76 E6        30.09R WCI  35
RIFLE          CLOUDY    36  28  73 CALM      30.10R
MONTROSE       CLOUDY    37  30  75 W5        30.11R WCI  33
CORTEZ         LGT SNOW  36  34  92 CALM      30.11R FOG
PAGE, AZ       CLOUDY    39  34  82 NW3       30.07R
GRAND CANYON   SNOW      33  32  96 CALM      30.04S VSB 1/4
KINGMAN        CLOUDY    49  38  65 NE6       29.99R
FLAGSTAFF      HVY SNOW  32  30  92 CALM      30.05R VSB 1/4

$$

REGIONAL REPORTS    NEVADA/IDAHO/WYOMING

CITY           SKY/WX    TMP DP  RH WIND       PRES   REMARKS
LAS VEGAS, NV  CLOUDY    50  34  54 S5        29.96R
ELY            CLOUDY    30  26  85 NE6       30.04R WCI  24
ELKO           MOSUNNY   36  18  48 NE10      30.05R WCI  28
POCATELLO, ID  SUNNY     25   3  38 NE9       30.18F WCI  15
BURLEY         SUNNY     29   3  33 E18       30.18S WCI  16
EVANSTON, WY   CLOUDY    20  15  81 E15       30.09R WCI   6
ROCK SPRINGS   SUNNY     17   8  67 E10       30.16R WCI   5

$$


USA.gov is the U.S. government's official web portal to all federal, state and local government web resources and services.